Vertical_Velocity
-3 -4 -2 -1 -3 -1 -1 -3 -2 -4 -1 -0 -1 -1 -3 -4 -6 -6 -14 6 -3 15 -9 5 -0 1 2 0 5 4 3 -7 -3 1 -8 0 -1 1 -0 2 1 1 -4 -1 -3
-4 -6 -7 -6 -6 -2 -1 -3 -1 -1 -2 -3 -2 -3 -2 -6 -10 -26 21 -1 2 16 -4 1 4 4 -1 -0 2 3 -2 -5 0 1 -1 0 1 3 -0 -1 0 1 -1 -1 -4
-0 1 -2 -0 -1 -7 -8 -5 -3 1 -3 1 0 -4 -3 -7 -17 1 5 4 -1 6 -2 2 4 4 -4 1 1 -0 -20 6 -3 1 1 3 3 -0 3 0 -6 -8 -1 1 -1
-2 3 1 2 -0 -3 -4 -4 -1 -3 -0 -4 -4 -4 -3 -1 -18 -3 0 4 -3 3 3 10 1 0 -4 -8 1 1 -1 -4 6 2 -0 4 4 2 2 2 6 8 9 1 -2
-1 -2 -2 -0 -3 -4 -2 -3 -2 -5 -1 -1 -3 -3 -5 -9 -16 22 -1 -0 5 -0 7 9 -1 8 -3 -3 3 -3 5 0 1 5 -2 4 3 5 -1 2 -2 3 3 -1 -1
-2 -6 -5 -3 -5 -0 0 1 -2 -1 -3 -2 -1 -2 -8 -27 7 15 -10 -1 3 1 7 4 4 10 6 -2 8 -9 3 0 5 -5 3 1 3 7 5 1 -1 -1 0 2 1
-4 -1 -1 -0 -3 -0 -2 -2 -2 -1 -0 -6 -3 -5 -7 -3 2 9 5 10 9 3 1 5 14 5 8 6 9 -1 2 4 1 -6 -7 5 -1 -12 5 2 3 0 1 -1 4
4 2 -1 0 -3 -2 -4 -7 -2 2 -5 0 -4 -3 -21 9 -2 6 5 -2 4 2 -0 10 11 9 -5 11 4 -0 5 6 1 0 -13 25 -33 -9 5 4 1 1 -1 -2 -0
-4 -6 -2 -4 -2 -3 -3 -7 1 -4 -5 -0 -3 -1 -22 -7 -0 -3 -0 -3 -3 -5 -0 7 16 4 10 7 10 -2 -6 2 1 3 -3 10 -7 -14 5 2 1 1 2 -1 1
-1 -1 -7 -2 -2 -4 -1 -7 -2 -3 -3 -7 -2 1 -1 -2 3 4 -1 10 5 9 5 -1 26 0 5 8 -31 -12 5 4 3 -6 1 3 -4 -10 -1 1 -3 2 2 -2 1
-1 2 2 -7 2 2 -4 -6 -7 -1 -6 0 6 -9 -0 9 -4 19 -2 6 7 7 -16 -8 20 -3 -20 -23 13 11 -0 3 -13 6 7 4 -7 -11 4 -6 -2 1 -1 -8 -9
3 3 -0 1 -4 -1 -5 -4 -4 -3 -31 3 2 -4 -2 -1 -37 34 10 -2 6 -17 25 25 -17 -11 2 16 8 6 5 1 5 3 12 6 -5 -4 2 -8 -4 -1 -0 -1 -5
7 2 -2 -2 -4 1 -2 -7 -2 -3 -7 -12 1 2 1 1 -10 27 -4 3 -5 13 -0 -7 -33 -1 9 1 8 2 -11 3 2 3 -2 3 -8 -14 6 -1 -6 -7 -6 -3 -6
8 3 3 3 -1 -2 -1 -2 -7 -4 -8 -3 -1 2 -0 -4 -11 8 12 6 -10 -10 4 6 13 11 8 -1 12 1 7 6 3 5 -6 -0 -9 -13 1 -3 -3 1 -2 -3 -5
7 1 2 -2 1 0 2 -1 -5 -2 -6 -3 2 6 -1 -0 -4 1 0 0 -12 -2 20 -87 -7 -7 12 -24 3 -17 -9 -5 6 -1 9 1 6 -34 -0 -7 -6 -4 -1 -7 -6
4 -1 1 -0 2 -0 2 -0 -4 -3 -20 0 3 1 -0 0 -2 -11 -3 4 11 4 27 11 11 32 -9 -6 3 4 3 9 8 14 10 -25 8 -21 -25 0 -11 -13 -5 -5 2
2 2 1 2 -1 2 3 2 -4 -3 -1 3 1 -2 5 -14 -8 -2 -7 3 -1 1 -6 6 -9 7 -4 12 14 13 22 5 11 14 -9 -1 21 -41 -3 0 -15 -9 -2 4 4
-2 1 4 6 -1 2 1 1 0 -1 -2 5 -4 -2 -5 0 0 -3 -2 -6 10 -4 19 9 20 4 -12 -17 -9 -16 -9 -10 -4 -3 -11 12 -9 -33 -20 -4 -12 4 0 -0 -2
1 1 4 2 10 2 0 -1 -7 -1 -1 -4 -6 -4 -2 2 -2 1 -5 -4 -7 13 14 8 -2 17 14 14 -10 -10 19 -17 -4 4 -1 -4 -7 -2 -6 -9 -8 -19 2 0 -0
4 5 8 4 4 -1 1 -3 -4 -0 2 2 0 3 -2 -9 -2 10 -6 -2 1 -5 12 -13 -9 8 -4 27 18 -17 -3 15 15 1 0 -0 0 -11 -4 -14 -7 -11 -10 3 2
6 11 1 1 2 2 -6 -3 -4 1 1 -1 -1 -2 -0 -3 1 4 -10 1 1 -0 -2 1 13 -6 31 5 -21 9 20 14 -4 -1 -1 -1 -12 -6 -11 -12 -3 -4 1 6 11
8 8 -2 3 1 1 -2 3 -1 -1 -0 1 -5 6 -3 3 -5 3 -7 12 2 -5 -5 -3 3 -2 13 13 -8 -10 -13 -9 -2 2 -4 -0 -20 -2 -2 -2 2 9 5 4 -1
10 4 5 0 -5 -4 -2 -1 0 -5 -2 0 -0 1 8 1 10 4 4 2 -0 6 2 -4 1 -7 -10 19 34 15 -1 -3 -4 18 -9 4 -12 -3 2 -4 -0 3 1 3 1
15 5 7 -4 -3 2 3 -0 -3 1 -5 3 -1 4 7 -2 6 10 1 -1 4 -5 -1 16 -2 -8 -6 14 3 17 27 3 2 13 -17 -21 -13 -4 -7 -4 -2 8 1 2 1
8 -8 1 -0 -9 3 -2 5 -1 -4 0 1 -8 1 3 -1 6 -1 0 -5 16 -1 -5 38 1 14 5 13 -4 -7 -5 27 3 -22 5 -36 -17 -5 -9 -5 2 -6 2 1 4
5 -1 1 -4 -0 11 -1 -12 -3 2 3 -7 -3 2 7 -0 7 -11 -2 5 3 -4 -1 -7 -17 -4 -17 -8 5 2 -2 -3 21 13 6 8 -15 1 1 -4 -13 7 6 2 -2
0 2 7 -6 -1 6 -8 1 -10 7 -1 1 1 -7 -1 -1 2 3 -2 -2 -15 -7 13 0 -2 1 -7 -5 -7 -8 -2 -19 -5 8 -19 -6 -97 40 -13 -17 -6 -10 -7 2 -0
Height
3106 3102 3099 3096 3093 3089 3087 3084 3080 3077 3075 3075 3074 3075 3075 3075 3077 3077 3075 3089 3090 3092 3091 3094 3096 3096 3096 3097 3098 3099 3100 3095 3097 3101 3103 3106 3109 3112 3115 3118 3121 3123 3126 3128 3128
3099 3096 3093 3088 3084 3082 3079 3077 3075 3072 3070 3067 3066 3066 3065 3066 3066 3065 3079 3078 3081 3084 3083 3088 3090 3090 3089 3092 3092 3092 3090 3089 3094 3099 3101 3103 3106 3108 3111 3114 3116 3120 3123 3124 3126
3093 3089 3086 3082 3078 3075 3073 3070 3068 3065 3063 3060 3061 3060 3059 3057 3055 3057 3067 3067 3068 3071 3077 3081 3083 3082 3082 3084 3085 3084 3081 3088 3091 3096 3099 3100 3102 3103 3106 3109 3113 3118 3120 3121 3123
3086 3082 3077 3073 3070 3067 3064 3061 3060 3058 3056 3055 3053 3052 3051 3051 3051 3048 3054 3056 3057 3063 3069 3071 3072 3073 3073 3074 3079 3079 3079 3083 3089 3093 3095 3097 3097 3099 3101 3107 3112 3115 3117 3118 3120
3078 3074 3070 3065 3061 3058 3056 3055 3052 3049 3046 3046 3046 3045 3042 3040 3040 3046 3047 3048 3050 3053 3058 3061 3063 3066 3065 3069 3073 3071 3074 3078 3083 3088 3089 3091 3093 3094 3097 3102 3105 3109 3112 3115 3117
3071 3066 3061 3057 3053 3050 3048 3045 3044 3043 3039 3037 3036 3035 3031 3024 3036 3037 3038 3039 3042 3044 3045 3050 3053 3060 3062 3062 3064 3065 3070 3073 3076 3081 3083 3085 3087 3087 3093 3096 3100 3103 3107 3110 3113
3063 3058 3053 3049 3045 3042 3039 3037 3036 3033 3031 3029 3027 3024 3016 3020 3026 3027 3032 3033 3035 3037 3039 3042 3046 3049 3053 3055 3058 3061 3063 3065 3064 3071 3074 3080 3077 3076 3088 3091 3094 3098 3102 3105 3108
3059 3053 3047 3043 3037 3033 3030 3028 3027 3024 3023 3021 3018 3014 2999 3015 3015 3015 3021 3024 3026 3029 3031 3035 3040 3040 3042 3048 3052 3054 3057 3054 3054 3061 3066 3073 3061 3074 3082 3085 3088 3091 3095 3099 3102
3055 3050 3044 3038 3031 3026 3023 3019 3018 3014 3015 3014 3010 3005 2996 3004 3004 3004 3008 3010 3015 3020 3023 3028 3031 3031 3036 3039 3044 3045 3041 3041 3048 3052 3059 3060 3059 3068 3075 3078 3082 3085 3088 3092 3096
3048 3043 3037 3031 3025 3019 3015 3011 3011 3005 3005 3005 3001 3000 2995 2998 2996 2996 2998 2998 3001 3007 3013 3019 3023 3020 3023 3029 3023 3026 3033 3037 3040 3043 3049 3050 3051 3060 3066 3070 3074 3078 3082 3085 3088
3038 3033 3028 3025 3019 3013 3009 3003 3003 3000 2998 2998 2995 2985 2989 2989 2984 2987 2990 2989 2989 2993 2999 3007 3010 3004 3012 3015 3023 3025 3029 3032 3037 3040 3043 3043 3047 3053 3059 3062 3065 3069 3073 3077 3080
3028 3024 3020 3018 3012 3009 3003 2998 2992 2988 2974 2992 2983 2980 2975 2973 2967 2976 2984 2982 2982 2981 2988 2998 2992 3003 3010 3015 3017 3022 3024 3027 3032 3035 3039 3039 3039 3043 3046 3049 3055 3061 3065 3069 3073
3018 3014 3009 3008 3006 3003 2998 2996 2990 2984 2977 2976 2970 2969 2968 2968 2963 2966 2971 2972 2973 2975 2979 2980 2988 2998 2999 3003 3008 3012 3016 3022 3028 3030 3033 3035 3032 3033 3036 3039 3045 3048 3054 3059 3062
3007 3005 3002 3001 3000 2997 2993 2990 2987 2982 2976 2970 2967 2965 2965 2963 2962 2965 2962 2965 2966 2965 2970 2975 2979 2983 2989 2991 3001 3003 3012 3020 3024 3027 3027 3031 3023 3024 3027 3031 3035 3040 3044 3049 3054
2998 2997 2994 2991 2991 2990 2989 2986 2984 2983 2984 2969 2966 2964 2962 2965 2963 2962 2958 2954 2954 2957 2964 2961 2966 2972 2977 2980 2994 2995 3010 3013 3020 3022 3024 3025 3026 3010 3019 3020 3024 3031 3035 3041 3046
2989 2989 2988 2987 2985 2983 2983 2981 2981 2985 2975 2965 2965 2962 2961 2961 2960 2954 2953 2952 2952 2954 2947 2954 2959 2964 2965 2979 2983 2994 3004 3009 3013 3016 3014 3013 3019 3002 3006 3007 3017 3025 3028 3033 3038
2981 2982 2980 2979 2978 2977 2978 2978 2982 2978 2968 2965 2961 2959 2958 2954 2954 2951 2949 2948 2948 2950 2939 2944 2947 2954 2963 2971 2980 2987 2989 2997 3003 3002 2998 2997 3010 2988 2997 3002 3010 3016 3023 3026 3030
2975 2974 2973 2971 2970 2969 2971 2974 2975 2965 2963 2963 2959 2955 2955 2951 2950 2947 2945 2943 2943 2944 2937 2940 2933 2939 2945 2954 2962 2971 2975 2976 2982 2987 2985 2990 2991 2976 2990 3000 3004 3009 3014 3017 3021
2964 2965 2965 2964 2964 2963 2967 2967 2961 2961 2961 2959 2955 2951 2952 2950 2949 2945 2943 2941 2939 2938 2937 2931 2925 2925 2934 2945 2955 2963 2963 2971 2980 2980 2979 2981 2978 2979 2984 2990 2996 3002 3007 3012 3015
2957 2957 2957 2957 2958 2959 2960 2957 2956 2957 2957 2956 2956 2954 2950 2948 2947 2945 2941 2940 2938 2936 2936 2932 2922 2916 2926 2941 2946 2951 2956 2968 2971 2971 2974 2974 2968 2968 2973 2981 2989 2993 2998 3005 3010
2949 2949 2950 2952 2952 2952 2951 2949 2949 2952 2953 2953 2952 2950 2947 2945 2944 2942 2939 2937 2934 2934 2931 2930 2927 2916 2921 2917 2929 2942 2950 2957 2961 2963 2960 2968 2961 2965 2971 2978 2982 2987 2992 2996 3002
2941 2942 2943 2944 2948 2945 2942 2944 2946 2946 2949 2947 2946 2945 2943 2943 2940 2939 2936 2935 2932 2931 2929 2927 2921 2917 2909 2916 2925 2929 2935 2943 2948 2956 2959 2960 2957 2962 2965 2970 2975 2981 2986 2989 2991
2935 2936 2937 2938 2937 2937 2937 2938 2939 2939 2941 2942 2941 2941 2941 2940 2938 2934 2933 2932 2929 2928 2927 2925 2922 2918 2913 2911 2918 2921 2928 2936 2943 2948 2949 2957 2955 2961 2963 2966 2971 2976 2980 2984 2986
2930 2931 2931 2927 2927 2930 2932 2931 2933 2933 2935 2936 2937 2938 2936 2934 2934 2930 2929 2928 2926 2924 2923 2921 2919 2922 2915 2913 2916 2911 2918 2925 2932 2938 2944 2947 2949 2957 2962 2967 2970 2973 2977 2981 2985
2922 2920 2922 2921 2920 2923 2929 2930 2930 2931 2930 2931 2932 2933 2933 2932 2928 2928 2928 2925 2924 2922 2920 2918 2915 2914 2912 2910 2908 2908 2910 2915 2921 2930 2933 2940 2936 2945 2955 2964 2970 2973 2975 2978 2982
2915 2916 2915 2915 2919 2919 2919 2922 2925 2926 2927 2925 2927 2928 2929 2928 2928 2926 2925 2924 2922 2920 2920 2919 2914 2911 2908 2908 2907 2907 2905 2909 2914 2922 2928 2929 2928 2937 2949 2958 2963 2968 2971 2975 2979
2906 2906 2908 2910 2912 2913 2910 2915 2918 2921 2919 2919 2921 2921 2922 2923 2921 2921 2921 2920 2919 2917 2915 2917 2916 2913 2906 2905 2900 2892 2894 2902 2909 2915 2921 2921 2918 2936 2941 2944 2953 2961 2966 2971 2974